RYR612 EHEH-LERS

Flight info

Callsign RYR612
Flight time 2h 6m
Altitude 35000
Route WOODY N872 MEDIL DCT KOVIN DCT DUCRA UM728 RESMI/N0442F370 UN857 DISAK DCT DIRMO DCT VALKU DCT ATSUP DCT MINSO DCT DEGOL DCT PPG DCT ALBER P84 GIR
Aircraft B738/M-SDE2E3FGHIRWXY/LB1

Departure

Time 2026-04-29 10:04
Airport Eindhoven Airport (EHEH)

Arrival

Time 2026-04-29 12:10
Airport Reus Airport (LERS)
Time Latitude Longitude Altitude Speed Heading
2026-04-29 09:29 51.45581 5.38748 74 ft 0 kts 124°
2026-04-29 09:48 51.45592 5.38721 64 ft 4 kts 125°
2026-04-29 09:48 51.45607 5.38687 63 ft 2 kts 125°
2026-04-29 09:48 51.45618 5.38656 65 ft 4 kts 88°
2026-04-29 09:48 51.45607 5.38625 65 ft 4 kts 33°
2026-04-29 09:49 51.45594 5.38611 66 ft 0 kts 35°
2026-04-29 09:51 51.45606 5.38625 65 ft 8 kts 35°
2026-04-29 09:51 51.45656 5.38682 67 ft 9 kts 35°
2026-04-29 09:52 51.45723 5.38756 74 ft 15 kts 35°
2026-04-29 09:52 51.45794 5.38769 69 ft 11 kts 313°
2026-04-29 09:52 51.45836 5.38674 69 ft 11 kts 303°
2026-04-29 09:52 51.45896 5.38536 72 ft 17 kts 305°
2026-04-29 09:53 51.45963 5.38390 72 ft 16 kts 306°
2026-04-29 09:53 51.45985 5.38262 74 ft 13 kts 226°
2026-04-29 09:53 51.45915 5.38179 74 ft 12 kts 216°
2026-04-29 09:53 51.45828 5.38084 66 ft 21 kts 214°
2026-04-29 09:54 51.45702 5.37945 74 ft 22 kts 216°
2026-04-29 09:54 51.45582 5.37809 72 ft 21 kts 215°
2026-04-29 09:54 51.45464 5.37680 69 ft 20 kts 214°
2026-04-29 09:54 51.45351 5.37552 69 ft 20 kts 215°
2026-04-29 09:55 51.45242 5.37428 71 ft 19 kts 215°
2026-04-29 09:55 51.45136 5.37309 67 ft 18 kts 215°
2026-04-29 09:55 51.45033 5.37194 66 ft 18 kts 214°
2026-04-29 09:55 51.44929 5.37079 72 ft 18 kts 214°
2026-04-29 09:56 51.44826 5.36963 68 ft 18 kts 215°
2026-04-29 09:56 51.44726 5.36851 72 ft 17 kts 215°
2026-04-29 09:56 51.44620 5.36732 74 ft 23 kts 215°
2026-04-29 09:56 51.44486 5.36582 69 ft 22 kts 215°
2026-04-29 09:57 51.44360 5.36442 70 ft 21 kts 214°
2026-04-29 09:57 51.44251 5.36319 71 ft 14 kts 215°
2026-04-29 09:57 51.44187 5.36265 72 ft 10 kts 177°
2026-04-29 09:57 51.44162 5.36287 71 ft 0 kts 129°
2026-04-29 09:59 51.44129 5.36360 71 ft 13 kts 124°
2026-04-29 10:00 51.44108 5.36430 75 ft 6 kts 71°
2026-04-29 10:00 51.44119 5.36449 72 ft 0 kts 36°
2026-04-29 10:03 51.44172 5.36509 74 ft 34 kts 35°
2026-04-29 10:03 51.44554 5.36937 66 ft 98 kts 35°
2026-04-29 10:03 51.45268 5.37735 101 ft 147 kts 37°
2026-04-29 10:03 51.46130 5.38672 674 ft 151 kts 39°
2026-04-29 10:04 51.47002 5.39636 1329 ft 154 kts 40°
2026-04-29 10:04 51.47963 5.40694 1627 ft 183 kts 39°
2026-04-29 10:04 51.49061 5.41932 1907 ft 201 kts 39°
2026-04-29 10:04 51.50233 5.43262 2353 ft 210 kts 40°
2026-04-29 10:05 51.51573 5.44236 3013 ft 219 kts 14°
2026-04-29 10:05 51.53136 5.43980 3699 ft 237 kts 346°
2026-04-29 10:05 51.54543 5.42500 4433 ft 250 kts 315°
2026-04-29 10:05 51.55362 5.40019 5147 ft 259 kts 283°
2026-04-29 10:06 51.55280 5.37134 5789 ft 261 kts 251°
2026-04-29 10:06 51.54603 5.34432 6489 ft 262 kts 243°
2026-04-29 10:06 51.53815 5.31767 7097 ft 267 kts 243°
2026-04-29 10:06 51.53020 5.29056 7742 ft 268 kts 244°
2026-04-29 10:07 51.52238 5.26321 8408 ft 270 kts 244°
2026-04-29 10:07 51.51460 5.23561 9062 ft 273 kts 245°
2026-04-29 10:07 51.50697 5.20767 9773 ft 274 kts 251°
2026-04-29 10:07 51.50510 5.17785 10286 ft 279 kts 282°
2026-04-29 10:08 51.50984 5.14649 10474 ft 298 kts 288°
2026-04-29 10:08 51.51574 5.11329 10650 ft 320 kts 288°
2026-04-29 10:08 51.52205 5.07785 10804 ft 341 kts 288°
2026-04-29 10:08 51.52869 5.04001 10983 ft 360 kts 288°
2026-04-29 10:09 51.53544 5.00077 11476 ft 368 kts 287°
2026-04-29 10:09 51.54213 4.96134 12277 ft 366 kts 287°
2026-04-29 10:09 51.54882 4.92171 12900 ft 371 kts 287°
2026-04-29 10:09 51.55561 4.88139 13552 ft 374 kts 286°
2026-04-29 10:10 51.55869 4.83989 14301 ft 378 kts 265°
2026-04-29 10:10 51.55396 4.79807 14822 ft 385 kts 257°
2026-04-29 10:10 51.54791 4.75576 15321 ft 392 kts 257°
2026-04-29 10:10 51.54171 4.71293 15965 ft 395 kts 257°
2026-04-29 10:11 51.53557 4.66982 16625 ft 397 kts 258°
2026-04-29 10:11 51.52954 4.62642 17251 ft 400 kts 258°
2026-04-29 10:11 51.52351 4.58245 17822 ft 405 kts 258°
2026-04-29 10:11 51.51744 4.53807 18410 ft 409 kts 258°
2026-04-29 10:12 51.51093 4.49336 18962 ft 413 kts 252°
2026-04-29 10:12 51.49774 4.45253 19448 ft 415 kts 230°
2026-04-29 10:12 51.47705 4.42085 20030 ft 412 kts 211°
2026-04-29 10:12 51.45190 4.39938 20614 ft 409 kts 201°
2026-04-29 10:13 51.42596 4.38044 21136 ft 412 kts 201°
2026-04-29 10:13 51.39977 4.36111 21603 ft 416 kts 201°
2026-04-29 10:13 51.37336 4.34155 22106 ft 419 kts 201°
2026-04-29 10:13 51.34684 4.32182 22623 ft 422 kts 201°
2026-04-29 10:14 51.32016 4.30191 23126 ft 424 kts 201°
2026-04-29 10:14 51.29336 4.28175 23600 ft 428 kts 202°
2026-04-29 10:14 51.26642 4.26122 24043 ft 430 kts 202°
2026-04-29 10:14 51.23932 4.24051 24434 ft 433 kts 201°
2026-04-29 10:15 51.21203 4.21970 24800 ft 437 kts 201°
2026-04-29 10:15 51.18449 4.19880 25156 ft 440 kts 201°
2026-04-29 10:15 51.15660 4.17836 25518 ft 441 kts 198°
2026-04-29 10:15 51.12790 4.16147 25883 ft 441 kts 194°
2026-04-29 10:16 51.09872 4.14595 26248 ft 443 kts 193°
2026-04-29 10:16 51.06927 4.13066 26593 ft 446 kts 193°
2026-04-29 10:16 51.03974 4.11516 26927 ft 449 kts 194°
2026-04-29 10:16 51.01042 4.09948 27259 ft 452 kts 194°
2026-04-29 10:17 50.98055 4.08330 27592 ft 454 kts 194°
2026-04-29 10:17 50.95060 4.06697 27916 ft 457 kts 194°
2026-04-29 10:17 50.92043 4.05052 28240 ft 460 kts 194°
2026-04-29 10:17 50.89011 4.03405 28545 ft 462 kts 194°
2026-04-29 10:18 50.85976 4.01677 28848 ft 466 kts 197°
2026-04-29 10:18 50.82953 3.99775 29148 ft 469 kts 198°
2026-04-29 10:18 50.79932 3.97798 29446 ft 471 kts 198°
2026-04-29 10:18 50.76904 3.95803 29826 ft 471 kts 198°
2026-04-29 10:19 50.73872 3.93822 30223 ft 471 kts 198°
2026-04-29 10:19 50.70842 3.91864 30574 ft 470 kts 198°
2026-04-29 10:19 50.67818 3.89927 30949 ft 468 kts 198°
2026-04-29 10:19 50.64805 3.88007 31356 ft 466 kts 198°
2026-04-29 10:20 50.61807 3.86100 31747 ft 463 kts 198°
2026-04-29 10:20 50.58826 3.84206 32113 ft 462 kts 198°
2026-04-29 10:20 50.55861 3.82300 32533 ft 459 kts 200°
2026-04-29 10:20 50.52941 3.80324 32989 ft 455 kts 201°
2026-04-29 10:21 50.50053 3.78324 33346 ft 453 kts 202°
2026-04-29 10:21 50.47169 3.76312 33568 ft 455 kts 201°
2026-04-29 10:21 50.44264 3.74325 33788 ft 455 kts 201°
2026-04-29 10:21 50.41361 3.72356 34177 ft 452 kts 201°
2026-04-29 10:22 50.38481 3.70403 34467 ft 451 kts 201°
2026-04-29 10:22 50.35592 3.68444 34592 ft 453 kts 202°
2026-04-29 10:22 50.32732 3.66508 35153 ft 444 kts 203°
2026-04-29 10:22 50.29884 3.64590 35165 ft 448 kts 202°
2026-04-29 10:23 50.24142 3.60713 35188 ft 450 kts 203°
2026-04-29 10:23 50.18420 3.56854 35179 ft 446 kts 203°
2026-04-29 10:24 50.12744 3.53038 35194 ft 443 kts 205°
2026-04-29 10:24 50.07107 3.49252 35177 ft 439 kts 205°
2026-04-29 10:25 50.01513 3.45518 35172 ft 436 kts 206°
2026-04-29 10:25 49.95952 3.41813 35164 ft 433 kts 206°
2026-04-29 10:26 49.90420 3.38133 35171 ft 432 kts 206°
2026-04-29 10:26 49.84935 3.34493 35167 ft 432 kts 206°
2026-04-29 10:27 49.76648 3.29009 35161 ft 432 kts 206°
2026-04-29 10:28 49.71109 3.25356 35154 ft 433 kts 206°
2026-04-29 10:28 49.65555 3.21702 35147 ft 435 kts 206°
2026-04-29 10:29 49.59979 3.18042 35150 ft 436 kts 206°
2026-04-29 10:29 49.54382 3.14377 35147 ft 438 kts 206°
2026-04-29 10:30 49.48783 3.10681 35150 ft 437 kts 209°
2026-04-29 10:30 49.43649 3.05828 35139 ft 432 kts 217°
2026-04-29 10:31 49.38691 3.00636 35139 ft 431 kts 217°
2026-04-29 10:31 49.33714 2.95513 35138 ft 430 kts 217°
2026-04-29 10:32 49.28729 2.90461 35131 ft 429 kts 217°
2026-04-29 10:32 49.23747 2.85444 35128 ft 428 kts 216°
2026-04-29 10:33 49.18767 2.80441 35131 ft 428 kts 216°
2026-04-29 10:33 49.13792 2.75452 35127 ft 428 kts 216°
2026-04-29 10:34 49.08815 2.70473 35129 ft 428 kts 216°
2026-04-29 10:34 49.03838 2.65506 35131 ft 428 kts 216°
2026-04-29 10:35 48.98865 2.60550 35137 ft 427 kts 216°
2026-04-29 10:35 48.93891 2.55613 35127 ft 426 kts 216°
2026-04-29 10:36 48.88929 2.50695 35132 ft 425 kts 216°
2026-04-29 10:36 48.83980 2.45799 35126 ft 424 kts 216°
2026-04-29 10:37 48.79032 2.40915 35102 ft 423 kts 216°
2026-04-29 10:37 48.74097 2.36054 35103 ft 423 kts 216°
2026-04-29 10:38 48.69168 2.31209 35104 ft 422 kts 215°
2026-04-29 10:38 48.64246 2.26383 35103 ft 422 kts 215°
2026-04-29 10:39 48.59321 2.21572 35104 ft 421 kts 214°
2026-04-29 10:39 48.53908 2.18096 35088 ft 428 kts 196°
2026-04-29 10:40 48.48079 2.16271 35071 ft 428 kts 194°
2026-04-29 10:40 48.42244 2.14470 35077 ft 427 kts 195°
2026-04-29 10:41 48.36430 2.12610 35062 ft 426 kts 195°
2026-04-29 10:41 48.30632 2.10766 35055 ft 426 kts 193°
2026-04-29 10:42 48.24672 2.10613 35053 ft 434 kts 175°
2026-04-29 10:42 48.18713 2.12024 35039 ft 433 kts 175°
2026-04-29 10:43 48.12758 2.13296 35033 ft 431 kts 179°
2026-04-29 10:43 48.06797 2.13756 35047 ft 428 kts 182°
2026-04-29 10:44 48.00836 2.14003 35050 ft 429 kts 182°
2026-04-29 10:44 47.94856 2.14290 35053 ft 430 kts 182°
2026-04-29 10:45 47.88861 2.14622 35050 ft 432 kts 182°
2026-04-29 10:45 47.82883 2.14968 35051 ft 433 kts 182°
2026-04-29 10:46 47.77832 2.15263 35014 ft 434 kts 182°
2026-04-29 10:46 47.70810 2.15670 35021 ft 435 kts 182°
2026-04-29 10:47 47.65748 2.15962 35016 ft 435 kts 182°
2026-04-29 10:47 47.59708 2.16310 35009 ft 434 kts 182°
2026-04-29 10:48 47.53671 2.16656 35004 ft 434 kts 181°
2026-04-29 10:48 47.47648 2.17001 35009 ft 433 kts 181°
2026-04-29 10:49 47.41638 2.17344 35004 ft 432 kts 181°
2026-04-29 10:49 47.35636 2.17686 34992 ft 431 kts 181°
2026-04-29 10:50 47.29653 2.18019 35000 ft 430 kts 181°
2026-04-29 10:50 47.23682 2.18364 34997 ft 429 kts 181°
2026-04-29 10:51 47.17721 2.18703 34992 ft 428 kts 181°
2026-04-29 10:51 47.11770 2.19041 34988 ft 427 kts 180°
2026-04-29 10:52 47.05954 2.20754 34992 ft 435 kts 162°
2026-04-29 10:52 47.00339 2.24071 34984 ft 435 kts 161°
2026-04-29 10:53 46.94740 2.27429 34961 ft 434 kts 162°
2026-04-29 10:53 46.89143 2.30729 34986 ft 433 kts 162°
2026-04-29 10:54 46.83545 2.33990 34995 ft 433 kts 162°
2026-04-29 10:54 46.77950 2.37232 34990 ft 432 kts 162°
2026-04-29 10:55 46.72363 2.40463 34994 ft 432 kts 162°
2026-04-29 10:55 46.66775 2.43687 34988 ft 432 kts 162°
2026-04-29 10:56 46.61184 2.46906 34987 ft 432 kts 162°
2026-04-29 10:56 46.55579 2.50127 34996 ft 433 kts 162°
2026-04-29 10:57 46.49964 2.53346 34988 ft 434 kts 162°
2026-04-29 10:57 46.44336 2.56566 34993 ft 436 kts 162°
2026-04-29 10:58 46.38685 2.59792 34996 ft 437 kts 162°
2026-04-29 10:58 46.33022 2.63017 34991 ft 438 kts 162°
2026-04-29 10:59 46.27349 2.66241 34988 ft 438 kts 162°
2026-04-29 10:59 46.21674 2.69460 34981 ft 438 kts 162°
2026-04-29 11:00 46.16011 2.72665 34993 ft 437 kts 162°
2026-04-29 11:00 46.10356 2.75857 34995 ft 436 kts 162°
2026-04-29 11:01 46.04713 2.79034 34979 ft 435 kts 162°
2026-04-29 11:01 45.99082 2.82198 34990 ft 434 kts 163°
2026-04-29 11:02 45.93458 2.85202 35004 ft 434 kts 163°
2026-04-29 11:02 45.87780 2.88182 34999 ft 435 kts 163°
2026-04-29 11:03 45.82094 2.91184 34999 ft 436 kts 163°
2026-04-29 11:03 45.76391 2.94160 34997 ft 436 kts 167°
2026-04-29 11:04 45.70477 2.95357 34995 ft 427 kts 184°
2026-04-29 11:04 45.64542 2.95140 35002 ft 427 kts 185°
2026-04-29 11:05 45.58599 2.94903 35004 ft 427 kts 185°
2026-04-29 11:05 45.52657 2.94713 35003 ft 427 kts 184°
2026-04-29 11:06 45.46713 2.94549 35008 ft 427 kts 184°
2026-04-29 11:06 45.40772 2.94391 35000 ft 427 kts 184°
2026-04-29 11:07 45.34843 2.94232 35010 ft 426 kts 184°
2026-04-29 11:07 45.28924 2.94074 35017 ft 425 kts 184°
2026-04-29 11:08 45.23007 2.93916 35005 ft 425 kts 184°
2026-04-29 11:08 45.17093 2.93757 35003 ft 425 kts 184°
2026-04-29 11:09 45.11183 2.93600 35000 ft 424 kts 184°
2026-04-29 11:09 45.05317 2.93444 35004 ft 424 kts 184°
2026-04-29 11:10 44.99386 2.93286 35006 ft 423 kts 184°
2026-04-29 11:10 44.93537 2.93131 34998 ft 423 kts 184°
2026-04-29 11:11 44.87652 2.92975 35001 ft 423 kts 184°
2026-04-29 11:11 44.81777 2.92760 34999 ft 422 kts 185°
2026-04-29 11:12 44.75917 2.92315 35002 ft 421 kts 186°
2026-04-29 11:12 44.70059 2.91843 35001 ft 422 kts 186°
2026-04-29 11:13 44.64205 2.91396 35011 ft 421 kts 186°
2026-04-29 11:13 44.58350 2.90964 34992 ft 422 kts 185°
2026-04-29 11:14 44.52492 2.90539 34997 ft 421 kts 186°
2026-04-29 11:14 44.46637 2.90115 35002 ft 421 kts 186°
2026-04-29 11:15 44.40781 2.89691 34990 ft 421 kts 185°
2026-04-29 11:15 44.34934 2.89268 34989 ft 421 kts 186°
2026-04-29 11:16 44.29088 2.88846 34995 ft 420 kts 186°
2026-04-29 11:16 44.23254 2.88426 35002 ft 419 kts 186°
2026-04-29 11:17 44.17424 2.88006 34983 ft 419 kts 186°
2026-04-29 11:17 44.11604 2.87570 34995 ft 419 kts 185°
2026-04-29 11:18 44.05785 2.87177 34984 ft 418 kts 185°
2026-04-29 11:18 43.99974 2.86727 34999 ft 418 kts 185°
2026-04-29 11:19 43.94161 2.86324 34984 ft 418 kts 185°
2026-04-29 11:19 43.88348 2.85914 34987 ft 418 kts 185°
2026-04-29 11:20 43.82577 2.85523 34987 ft 418 kts 185°
2026-04-29 11:20 43.76777 2.85122 34980 ft 418 kts 183°
2026-04-29 11:21 43.70969 2.85175 34997 ft 418 kts 181°
2026-04-29 11:21 43.65162 2.85342 35002 ft 417 kts 181°
2026-04-29 11:22 43.59356 2.85465 35002 ft 417 kts 181°
2026-04-29 11:22 43.53547 2.85541 34996 ft 418 kts 180°
2026-04-29 11:23 43.47718 2.85640 35000 ft 419 kts 180°
2026-04-29 11:23 43.41872 2.85732 35007 ft 421 kts 181°
2026-04-29 11:24 43.36009 2.85814 35005 ft 422 kts 180°
2026-04-29 11:24 43.30133 2.85895 35019 ft 422 kts 180°
2026-04-29 11:25 43.24249 2.85986 35015 ft 423 kts 180°
2026-04-29 11:25 43.18368 2.86075 35000 ft 423 kts 180°
2026-04-29 11:26 43.09549 2.86181 35006 ft 421 kts 180°
2026-04-29 11:26 43.03733 2.86279 35000 ft 421 kts 180°
2026-04-29 11:27 42.97887 2.86371 34999 ft 419 kts 180°
2026-04-29 11:27 42.92063 2.86453 35006 ft 418 kts 180°
2026-04-29 11:28 42.86250 2.86540 35028 ft 417 kts 180°
2026-04-29 11:28 42.80444 2.86622 35034 ft 417 kts 180°
2026-04-29 11:29 42.74641 2.86687 35019 ft 417 kts 182°
2026-04-29 11:29 42.68860 2.86107 35022 ft 415 kts 186°
2026-04-29 11:30 42.63230 2.85352 34715 ft 401 kts 186°
2026-04-29 11:30 42.60474 2.85003 34420 ft 395 kts 185°
2026-04-29 11:30 42.57750 2.84672 34051 ft 391 kts 185°
2026-04-29 11:31 42.55054 2.84352 33670 ft 387 kts 185°
2026-04-29 11:31 42.52379 2.84050 33266 ft 384 kts 184°
2026-04-29 11:31 42.49727 2.83742 32906 ft 380 kts 185°
2026-04-29 11:31 42.47101 2.83425 32521 ft 378 kts 185°
2026-04-29 11:32 42.44497 2.83112 32171 ft 374 kts 185°
2026-04-29 11:32 42.41917 2.82810 31827 ft 371 kts 185°
2026-04-29 11:32 42.39357 2.82517 31462 ft 368 kts 185°
2026-04-29 11:32 42.36811 2.82225 31129 ft 366 kts 185°
2026-04-29 11:33 42.34282 2.81932 30752 ft 364 kts 185°
2026-04-29 11:33 42.31766 2.81641 30414 ft 362 kts 185°
2026-04-29 11:33 42.29266 2.81354 30080 ft 360 kts 185°
2026-04-29 11:33 42.26776 2.81067 29685 ft 358 kts 185°
2026-04-29 11:34 42.24307 2.80783 29301 ft 355 kts 185°
2026-04-29 11:34 42.21852 2.80500 28941 ft 353 kts 185°
2026-04-29 11:34 42.20239 2.80314 28706 ft 350 kts 185°
2026-04-29 11:34 42.17817 2.80035 28368 ft 347 kts 185°
2026-04-29 11:35 42.15419 2.79759 28008 ft 345 kts 185°
2026-04-29 11:35 42.13038 2.79485 27663 ft 342 kts 185°
2026-04-29 11:35 42.10673 2.79214 27318 ft 340 kts 185°
2026-04-29 11:35 42.08323 2.78944 26988 ft 338 kts 185°
2026-04-29 11:36 42.05988 2.78676 26658 ft 336 kts 185°
2026-04-29 11:36 42.03663 2.78409 26332 ft 335 kts 185°
2026-04-29 11:36 42.01332 2.78142 26007 ft 338 kts 185°
2026-04-29 11:36 41.98956 2.77852 25688 ft 347 kts 188°
2026-04-29 11:37 41.96665 2.76814 25303 ft 351 kts 211°
2026-04-29 11:37 41.94833 2.74672 24964 ft 351 kts 232°
2026-04-29 11:37 41.93689 2.71798 24638 ft 351 kts 251°
2026-04-29 11:37 41.93312 2.68563 24302 ft 353 kts 268°
2026-04-29 11:38 41.93372 2.65272 23965 ft 353 kts 271°
2026-04-29 11:38 41.93496 2.61973 23628 ft 353 kts 271°
2026-04-29 11:38 41.93634 2.58691 23226 ft 352 kts 271°
2026-04-29 11:38 41.93767 2.55420 22872 ft 350 kts 271°
2026-04-29 11:39 41.93890 2.52171 22521 ft 347 kts 270°
2026-04-29 11:39 41.94004 2.48944 22189 ft 345 kts 270°
2026-04-29 11:39 41.94112 2.45743 21857 ft 342 kts 270°
2026-04-29 11:39 41.94213 2.42571 21537 ft 339 kts 270°
2026-04-29 11:40 41.94311 2.39419 21225 ft 336 kts 270°
2026-04-29 11:40 41.94407 2.36290 20902 ft 334 kts 270°
2026-04-29 11:40 41.94500 2.33189 20587 ft 332 kts 270°
2026-04-29 11:40 41.94592 2.30100 20275 ft 330 kts 270°
2026-04-29 11:41 41.94683 2.27029 19975 ft 328 kts 270°
2026-04-29 11:41 41.94772 2.23974 19661 ft 326 kts 270°
2026-04-29 11:41 41.94860 2.20935 19353 ft 325 kts 270°
2026-04-29 11:41 41.94947 2.17908 19047 ft 323 kts 270°
2026-04-29 11:42 41.95033 2.14898 18748 ft 322 kts 270°
2026-04-29 11:42 41.95118 2.11893 18452 ft 321 kts 269°
2026-04-29 11:42 41.95200 2.08941 18123 ft 320 kts 269°
2026-04-29 11:42 41.95283 2.05962 17781 ft 318 kts 269°
2026-04-29 11:43 41.95364 2.03009 17465 ft 316 kts 269°
2026-04-29 11:43 41.95444 2.00068 17146 ft 313 kts 269°
2026-04-29 11:43 41.95523 1.97156 16856 ft 311 kts 269°
2026-04-29 11:43 41.95600 1.94259 16558 ft 309 kts 269°
2026-04-29 11:44 41.95675 1.91390 16269 ft 306 kts 269°
2026-04-29 11:44 41.95750 1.88537 15983 ft 304 kts 269°
2026-04-29 11:44 41.95824 1.85709 15696 ft 302 kts 269°
2026-04-29 11:44 41.95896 1.82895 15412 ft 300 kts 269°
2026-04-29 11:45 41.95965 1.80100 15121 ft 298 kts 267°
2026-04-29 11:45 41.95619 1.77417 14826 ft 290 kts 243°
2026-04-29 11:45 41.94528 1.75201 14588 ft 283 kts 224°
2026-04-29 11:45 41.93011 1.73546 14328 ft 280 kts 215°
2026-04-29 11:46 41.91425 1.72038 14048 ft 279 kts 214°
2026-04-29 11:46 41.89835 1.70551 13782 ft 278 kts 214°
2026-04-29 11:46 41.88252 1.69068 13492 ft 277 kts 214°
2026-04-29 11:46 41.86678 1.67585 13217 ft 276 kts 214°
2026-04-29 11:47 41.85109 1.66102 12929 ft 276 kts 214°
2026-04-29 11:47 41.83546 1.64620 12649 ft 275 kts 214°
2026-04-29 11:47 41.81994 1.63146 12401 ft 272 kts 214°
2026-04-29 11:47 41.80452 1.61680 12139 ft 271 kts 214°
2026-04-29 11:48 41.78917 1.60220 11874 ft 270 kts 214°
2026-04-29 11:48 41.77391 1.58771 11619 ft 269 kts 214°
2026-04-29 11:48 41.75862 1.57320 11369 ft 269 kts 214°
2026-04-29 11:48 41.74332 1.55869 11109 ft 270 kts 214°
2026-04-29 11:49 41.72677 1.54746 10918 ft 266 kts 193°
2026-04-29 11:49 41.70876 1.54276 10832 ft 262 kts 191°
2026-04-29 11:49 41.69072 1.53828 10726 ft 266 kts 191°
2026-04-29 11:49 41.67245 1.53372 10617 ft 270 kts 191°
2026-04-29 11:50 41.65390 1.52906 10504 ft 271 kts 191°
2026-04-29 11:50 41.63540 1.52438 10399 ft 269 kts 191°
2026-04-29 11:50 41.61703 1.51971 10277 ft 268 kts 191°
2026-04-29 11:50 41.59874 1.51506 10166 ft 267 kts 191°
2026-04-29 11:51 41.58048 1.51042 10057 ft 266 kts 191°
2026-04-29 11:51 41.56262 1.50432 9930 ft 266 kts 205°
2026-04-29 11:51 41.54815 1.48921 9835 ft 267 kts 229°
2026-04-29 11:51 41.53887 1.46769 9713 ft 270 kts 248°
2026-04-29 11:52 41.53319 1.44422 9594 ft 270 kts 250°
2026-04-29 11:52 41.52774 1.41981 9491 ft 271 kts 251°
2026-04-29 11:52 41.52246 1.39565 9375 ft 272 kts 251°
2026-04-29 11:52 41.51716 1.37144 9255 ft 272 kts 250°
2026-04-29 11:53 41.51189 1.34757 9142 ft 272 kts 250°
2026-04-29 11:53 41.50654 1.32345 9033 ft 272 kts 250°
2026-04-29 11:53 41.50113 1.29926 8927 ft 272 kts 250°
2026-04-29 11:53 41.49571 1.27511 8813 ft 272 kts 250°
2026-04-29 11:54 41.49027 1.25098 8707 ft 272 kts 250°
2026-04-29 11:54 41.48482 1.22686 8601 ft 272 kts 250°
2026-04-29 11:54 41.47934 1.20267 8475 ft 272 kts 250°
2026-04-29 11:54 41.47385 1.17848 8364 ft 272 kts 250°
2026-04-29 11:55 41.46837 1.15434 8250 ft 272 kts 250°
2026-04-29 11:55 41.46290 1.13028 8149 ft 271 kts 250°
2026-04-29 11:55 41.45742 1.10622 8040 ft 271 kts 250°
2026-04-29 11:55 41.45192 1.08212 7930 ft 272 kts 250°
2026-04-29 11:56 41.44643 1.05807 7798 ft 271 kts 250°
2026-04-29 11:56 41.44093 1.03408 7694 ft 271 kts 250°
2026-04-29 11:56 41.43545 1.01008 7591 ft 270 kts 250°
2026-04-29 11:56 41.42997 0.98609 7459 ft 271 kts 250°
2026-04-29 11:57 41.42447 0.96211 7364 ft 270 kts 250°
2026-04-29 11:57 41.41897 0.93815 7256 ft 270 kts 250°
2026-04-29 11:57 41.41349 0.91425 7118 ft 270 kts 250°
2026-04-29 11:57 41.40802 0.89034 7019 ft 269 kts 250°
2026-04-29 11:58 41.40250 0.86654 6917 ft 270 kts 250°
2026-04-29 11:58 41.39672 0.84273 6796 ft 269 kts 244°
2026-04-29 11:58 41.38562 0.82332 6683 ft 263 kts 215°
2026-04-29 11:58 41.36952 0.81230 6595 ft 261 kts 197°
2026-04-29 11:59 41.35212 0.80543 6493 ft 261 kts 195°
2026-04-29 11:59 41.33486 0.79894 6376 ft 261 kts 194°
2026-04-29 11:59 41.31743 0.79236 6265 ft 260 kts 194°
2026-04-29 11:59 41.30019 0.78577 6153 ft 256 kts 194°
2026-04-29 12:00 41.28332 0.77926 6007 ft 248 kts 194°
2026-04-29 12:00 41.26715 0.77291 5919 ft 237 kts 194°
2026-04-29 12:00 41.25168 0.76683 5845 ft 228 kts 194°
2026-04-29 12:00 41.23655 0.76095 5749 ft 224 kts 195°
2026-04-29 12:01 41.22170 0.75611 5670 ft 216 kts 189°
2026-04-29 12:01 41.20694 0.75276 5575 ft 215 kts 188°
2026-04-29 12:01 41.19205 0.74942 5484 ft 220 kts 188°
2026-04-29 12:01 41.17667 0.74596 5408 ft 227 kts 188°
2026-04-29 12:02 41.16091 0.74353 5317 ft 228 kts 178°
2026-04-29 12:02 41.14503 0.74464 5217 ft 229 kts 176°
2026-04-29 12:02 41.12911 0.74575 5133 ft 229 kts 177°
2026-04-29 12:02 41.11328 0.74673 5033 ft 226 kts 177°
2026-04-29 12:03 41.09771 0.74801 4930 ft 222 kts 170°
2026-04-29 12:03 41.08354 0.75533 4849 ft 216 kts 154°
2026-04-29 12:03 41.07020 0.76432 4755 ft 217 kts 155°
2026-04-29 12:03 41.05639 0.77329 4667 ft 226 kts 153°
2026-04-29 12:04 41.04227 0.78289 4585 ft 229 kts 147°
2026-04-29 12:04 41.03183 0.79838 4475 ft 228 kts 114°
2026-04-29 12:04 41.02922 0.81904 4389 ft 231 kts 86°
2026-04-29 12:04 41.03383 0.83936 4300 ft 232 kts 67°
2026-04-29 12:05 41.04107 0.85824 4210 ft 229 kts 66°
2026-04-29 12:05 41.04822 0.87698 4089 ft 225 kts 66°
2026-04-29 12:05 41.05509 0.89497 3997 ft 212 kts 66°
2026-04-29 12:05 41.06152 0.91216 3692 ft 206 kts 68°
2026-04-29 12:06 41.06784 0.92912 3342 ft 207 kts 66°
2026-04-29 12:06 41.07422 0.94626 3018 ft 204 kts 66°
2026-04-29 12:06 41.08041 0.96277 2817 ft 197 kts 67°
2026-04-29 12:06 41.08636 0.97874 2622 ft 190 kts 66°
2026-04-29 12:07 41.09205 0.99402 2477 ft 181 kts 66°
2026-04-29 12:07 41.09739 1.00839 2339 ft 165 kts 67°
2026-04-29 12:07 41.10219 1.02125 2246 ft 146 kts 68°
2026-04-29 12:07 41.10668 1.03336 2132 ft 148 kts 67°
2026-04-29 12:08 41.11126 1.04574 1970 ft 148 kts 66°
2026-04-29 12:08 41.11562 1.05799 1819 ft 147 kts 71°
2026-04-29 12:08 41.11933 1.07056 1645 ft 147 kts 72°
2026-04-29 12:08 41.12302 1.08285 1475 ft 144 kts 72°
2026-04-29 12:09 41.12657 1.09521 1228 ft 145 kts 72°
2026-04-29 12:09 41.13023 1.10796 1042 ft 150 kts 71°
2026-04-29 12:09 41.13403 1.12109 857 ft 152 kts 72°
2026-04-29 12:09 41.13778 1.13402 677 ft 148 kts 73°
2026-04-29 12:10 41.14146 1.14672 473 ft 146 kts 72°
2026-04-29 12:10 41.14508 1.15909 271 ft 141 kts 72°
2026-04-29 12:10 41.14822 1.16993 243 ft 101 kts 69°
2026-04-29 12:10 41.15000 1.17599 242 ft 49 kts 69°
2026-04-29 12:11 41.15109 1.17977 242 ft 39 kts 69°
2026-04-29 12:11 41.15184 1.18234 242 ft 17 kts 69°
2026-04-29 12:11 41.15271 1.18271 242 ft 15 kts 339°
2026-04-29 12:11 41.15344 1.18188 242 ft 15 kts 270°
2026-04-29 12:12 41.15307 1.18056 242 ft 19 kts 249°
2026-04-29 12:12 41.15250 1.17856 242 ft 25 kts 249°
2026-04-29 12:12 41.15189 1.17653 242 ft 23 kts 250°
2026-04-29 12:12 41.15133 1.17458 242 ft 22 kts 248°
2026-04-29 12:13 41.15078 1.17269 242 ft 22 kts 251°
2026-04-29 12:13 41.15026 1.17087 243 ft 21 kts 247°
2026-04-29 12:13 41.14972 1.16907 243 ft 20 kts 249°
2026-04-29 12:13 41.14921 1.16734 243 ft 20 kts 248°
2026-04-29 12:14 41.14871 1.16567 243 ft 19 kts 249°
2026-04-29 12:14 41.14825 1.16404 243 ft 19 kts 249°
2026-04-29 12:14 41.14779 1.16247 243 ft 18 kts 248°
2026-04-29 12:14 41.14734 1.16097 243 ft 17 kts 248°
2026-04-29 12:15 41.14692 1.15950 243 ft 17 kts 249°
2026-04-29 12:15 41.14655 1.15825 243 ft 12 kts 248°
2026-04-29 12:15 41.14625 1.15723 243 ft 12 kts 248°
2026-04-29 12:15 41.14627 1.15649 243 ft 7 kts 325°
2026-04-29 12:16 41.14670 1.15627 242 ft 5 kts 339°
2026-04-29 12:16 41.14674 1.15625 242 ft 0 kts 339°